Regional Weather Roundup
Issued by NWS

Home | Current Version | Previous Version | Graphics & Text | Print | Product List | Glossary On
Versions: 1 2 3 4 5 6 7 8 9 10 11 12 13 14 15 16 17 18 19 20 21 22 23 24 25 26 27 28 29 30 31 32 33 34 35 36 37 38 39 40 41 42 43 44 45 46 47 48 49 50
000
ASUS45 KABQ 181010
RWRNM
WEATHER ROUNDUP FOR NEW MEXICO
NATIONAL WEATHER SERVICE ALBUQUERQUE NM
400 AM MDT SAT APR 18 2015

NOTE: "FAIR" MEANS FEW OR NO CLOUDS BELOW 12,000 FEET AGL WITH NO
       SIGNIFICANT WEATHER OR OBSTRUCTIONS TO VISION.

      THIS PRODUCT IS RELEASED AS TWO VERSIONS.  ONE VERSION NEAR
      THE TOP OF THE HOUR CONTAINING PRELIMINARY DATA FROM ALBUQUERQUE
      AND OTHER STATIONS.  A FINAL VERSION WITH ADDITIONAL DATA IS
      ISSUED ABOUT 10 MINUTES AFTER THE HOUR.

NMZ501-503-504-510>518-181100-
NORTHWEST PLATEAU/NORTHCENTRAL MOUNTAINS

CITY           SKY/WX    TMP DP  RH WIND       PRES   REMARKS
FARMINGTON     FLURRIES  32  31  96 CALM      30.01R
LOS ALAMOS     LGT SNOW  29  29 100 N3        30.00S VSB 3/4
SANTA FE       LGT SNOW  33  30  88 NW6       29.99F FOG     WCI  28
ANGEL FIRE     CLOUDY    20  14  76 N3        30.00F

$$
NMZ402-403-502-505>509-181100-
WESTCENTRAL MOUNTAINS/SOUTHWEST MOUNTAINS

CITY           SKY/WX    TMP DP  RH WIND       PRES   REMARKS
GALLUP         CLOUDY    40  24  53 SW15      30.01S WCI  32
GRANTS         CLOUDY    33  22  62 SE3       30.01S
SILVER CITY      N/A     37  10  32 N12       30.05S WCI  30

$$
NMZ407-409-411-412-181100-
SOUTHERN DESERTS

CITY           SKY/WX    TMP DP  RH WIND       PRES   REMARKS
LORDSBURG      FAIR      39  12  33 CALM      30.03F
DEMING         FAIR      37  10  32 SW5       30.03S WCI  33
LAS CRUCES     FAIR      38   8  29 CALM      30.03R
HOLLOMAN AFB   PTCLDY    39  16  38 VRB6      29.98S WCI  35
ALAMOGORDO     PTCLDY    46  19  34 NE6       29.99S
T OR C         FAIR      44  17  33 NW7       30.00F

$$
NMZ519>523-181100-
CENTRAL VALLEYS/CENTRAL HIGHLANDS

CITY           SKY/WX    TMP DP  RH WIND       PRES   REMARKS
ALBUQUERQUE    CLOUDY    36  24  62 SE7       30.00F WCI  30
DOUBLE EAGLE   MOCLDY    33  26  76 W5        30.00F WCI  28
MORIARTY ARPT  FAIR      23  18  81 CALM      30.00F
CLINES CORNERS PTCLDY    26  23  88 W8        29.96F WCI  18
BELEN          FAIR      33  25  74 NW3       30.01F
SOCORRO        FAIR      36  20  52 SW3       30.01S

$$
NMZ524>526-539-540-181100-
SOUTHCENTRAL MOUNTAINS

CITY           SKY/WX    TMP DP  RH WIND       PRES   REMARKS
RUIDOSO        CLEAR     39  16  38 W8        30.05F WCI  34

$$
NMZ527>531-181100-
NORTHEAST HIGHLANDS/NORTHEAST PLAINS

CITY           SKY/WX    TMP DP  RH WIND       PRES   REMARKS
LAS VEGAS      PTCLDY    27  19  72 E7        29.97F WCI  19
RATON          MOCLDY    30  22  72 CALM      29.96F
CLAYTON        CLEAR     40  28  62 NW16      29.94F WCI  31

$$
NMZ532>537-181100-
EASTCENTRAL PLAINS

CITY           SKY/WX    TMP DP  RH WIND       PRES   REMARKS
TUCUMCARI      CLEAR     34  17  50 S6        29.95F WCI  29
CANNON AFB     NOT AVBL
CLOVIS AIRPORT CLEAR     37  21  52 NW12      29.97F WCI  30

$$
NMZ028-029-538-181100-
SOUTHEAST PLAINS

CITY           SKY/WX    TMP DP  RH WIND       PRES   REMARKS
ROSWELL        CLEAR     38  30  73 CALM      30.00R
ARTESIA        CLEAR     39  28  65 NW9       30.00F WCI  33
CARLSBAD       PTCLDY    46  27  47 NW7       29.97S
HOBBS          PTCLDY    43  36  75 CALM      29.97F


$$


USA.gov is the U.S. government's official web portal to all federal, state and local government web resources and services.